This is the latest recevied weather packets stored in our database for station/object IW7DVM-13. If no packets are shown the sender has not sent any weather packets the latest 10 day(s).
| Time | Temp. | Humidity | Pressure | Rain* | Wind** | Luminosity | Snow |
|---|---|---|---|---|---|---|---|
| 1787742903 | 32.78° C | 56% | 1010.1 hPa | 0 mm | - | - | - |
| 1787742603 | 32.22° C | 55% | 1010.1 hPa | 0 mm | - | - | - |
| 1787742303 | 32.78° C | 55% | 1010.2 hPa | 0 mm | - | - | - |
| 1787742003 | 32.78° C | 54% | 1010.2 hPa | 0 mm | - | - | - |
| 1787741703 | 32.22° C | 55% | 1010.2 hPa | 0 mm | - | - | - |
| 1787741403 | 32.78° C | 56% | 1010.2 hPa | 0 mm | - | - | - |
| 1787741103 | 33.33° C | 53% | 1010.3 hPa | 0 mm | - | - | - |
| 1787740803 | 32.78° C | 53% | 1010.2 hPa | 0 mm | - | - | - |
| 1787740503 | 32.78° C | 54% | 1010.3 hPa | 0 mm | - | - | - |
| 1787740203 | 32.22° C | 55% | 1010.3 hPa | 0 mm | - | - | - |
| 1787739903 | 32.22° C | 54% | 1010.5 hPa | 0 mm | - | - | - |
| 1787739603 | 32.22° C | 55% | 1010.6 hPa | 0 mm | - | - | - |
| 1787739303 | 32.22° C | 56% | 1010.6 hPa | 0 mm | - | - | - |
| 1787739003 | 32.22° C | 55% | 1010.7 hPa | 0 mm | - | - | - |
| 1787738703 | 32.22° C | 57% | 1010.6 hPa | 0 mm | - | - | - |
| 1787738403 | 32.22° C | 57% | 1010.7 hPa | 0 mm | - | - | - |
| 1787738103 | 31.67° C | 57% | 1010.8 hPa | 0 mm | - | - | - |
| 1787737803 | 31.67° C | 56% | 1010.9 hPa | 0 mm | - | - | - |
| 1787737503 | 31.67° C | 57% | 1010.8 hPa | 0 mm | - | - | - |
| 1787737203 | 32.22° C | 55% | 1010.8 hPa | 0 mm | - | - | - |
| 1787736903 | 32.22° C | 56% | 1010.8 hPa | 0 mm | - | - | - |
| 1787736603 | 32.22° C | 56% | 1010.9 hPa | 0 mm | - | - | - |
| 1787736304 | 32.22° C | 56% | 1010.9 hPa | 0 mm | - | - | - |
| 1787736003 | 32.22° C | 53% | 1010.9 hPa | 0 mm | - | - | - |
| 1787735703 | 32.22° C | 50% | 1010.8 hPa | 0 mm | - | - | - |
* Rain latest hour (hover to see other rain measurements)
** Current wind speed in m/s (hover to see current wind gust speed)